Torna al catalogo

STARLINK-3229

AttivoComunicazioniVLEO
NORAD 49751·PAYLOAD·🇺🇸 United States

Lanciato Dec 2, 2021 da Cape Canaveral Space Force Station

Loading…

Prossimi Passaggi (prossime 24 ore)

TLE

AggiornatoSource: CelesTrak SupGP

Epoca: Sep 14, 2026, 21:11 UTC

1 49751C 21115AD  26257.88312500 -.00005649  00000+0 -16704-3 0  2578
2 49751  53.1596  14.3253 0001252  84.2827 172.6590 15.34365401    19

Traccia STARLINK-3229 in tempo reale con AllMySat

Download on the App Store